Location: Unspecified
(47.7670°N, 8.8522°E)
Time: 07:16:55
(UTC+01:00)

ISS - Pass Details

Date: 24 January 2019
Orbit: 403 x 411 km, 51.6° (Epoch: 21 February)

Event Time Altitude Azimuth Distance (km) Brightness Sun altitude
Rises 17:40:47 0° 188° (S) 2,318 0.5 -5.1°
Reaches altitude 10° 17:44:06 10° 152° (SSE) 1,467 -1.0 -5.7°
Maximum altitude 17:45:08 11° 133° (SE) 1,401 -1.3 -5.8°
Drops below altitude 10° 17:46:10 10° 115° (ESE) 1,472 -1.4 -6.0°
Enters shadow 17:47:44 - 93° (E) 1,794 -1.1 -6.2°
